GPS BIII-7 (PRN 01)

Last updated on Wed Aug 19 2026 00:03:21 GMT+0000 (Coordinated Universal Time)

1 62339U 24242A 26226.61674491 -.00000103 00000+0 00000+0 0 9996 2 62339 54.8202 331.8118 0018431 3.0031 316.8707 2.00572831 12424
UTC large
Height (km)
Speed (km/s)
/
Latitude / Longitude
Inclination (degrees)
Orbital Period (minutes)
Azimuth
Elevation
Range (km)
Doppler Factor

Next 0 passes for location: London (51.5072 / 0.1276)

No passes found over London.
GPS BIII-7 (PRN 01)